Tracking 19795 objects as of 17-Jul-2019
HD Live streaming from Space Station
objects crossing your sky now

EXOCUBE

Track EXOCUBE now!
10-day predictions
EXOCUBE is classified as:


NORAD ID: 40380
Int'l Code: 2015-003E
Perigee: 435.4 km
Apogee: 629.7 km
Inclination: 99.1 °
Period: 95.1 minutes
Semi major axis: 6903 km
RCS: Unknown
Launch date: January 31, 2015
Source: United States (US)
Launch site: AIR FORCE WESTERN TEST RANGE (AFWTR)

Uplink (MHz):
Downlink (MHz): 437.270
Beacon (MHz): 437.270
Mode: 9600bps FSK CW
Call sign: KK6HGC XO3
Status: Active

aabbcc
Your satellite tracking list
Your tracking list is empty




NASA's NSSDC Master Catalog

Two Line Element Set (TLE):
1 40380U 15003E   19197.87603117  .00001206  00000-0  57613-4 0  9999
2 40380  99.1163 174.5156 0140702  26.9253 333.9185 15.13548830245636
Source of the keplerian elements: Caltech